DW2778 Weather Reports


Display with metric or nautical units.
time (UTC)temp
F
wind
direction
speed
MPH
gust
MPH
rain 1hr
in
rain 24hr
in
rain mn
in
humidity
%
barometer
mb
20260506224559 73 198 7.0 17.0 0.00 0.00 0.00 71 1010.0
20260506223050 73 222 8.0 23.0 0.00 0.00 0.00 70 1009.8
20260506221551 73 255 11.0 23.0 0.00 0.00 0.00 70 1009.8
20260506220054 73 208 10.0 22.0 0.00 0.00 0.00 70 1009.6
20260506214550 73 229 14.0 26.0 0.00 0.00 0.00 70 1009.6
20260506213101 73 223 15.0 27.0 0.00 0.00 0.00 71 1009.6
20260506211550 72 212 13.0 26.0 0.00 0.00 0.00 71 1009.6
20260506210054 72 212 12.0 24.0 0.00 0.00 0.00 71 1009.3
20260506204551 72 208 11.0 30.0 0.00 0.00 0.00 71 1009.3
20260506203051 73 209 13.0 27.0 0.00 0.00 0.00 70 1009.1
20260506201555 73 189 13.0 25.0 0.00 0.00 0.00 69 1009.2
20260506200051 74 221 16.0 30.0 0.00 0.00 0.00 69 1009.6
20260506194554 74 204 13.0 26.0 0.00 0.00 0.00 68 1009.7
20260506193051 74 239 12.0 26.0 0.00 0.00 0.00 68 1009.7
20260506191551 74 213 14.0 30.0 0.00 0.00 0.00 67 1010.1
20260506190054 73 198 10.0 30.0 0.00 0.00 0.00 69 1010.3
20260506184555 72 131 14.0 29.0 0.00 0.00 0.00 71 1010.3
20260506183054 71 211 13.0 28.0 0.00 0.00 0.00 73 1010.6
20260506181558 71 219 14.0 29.0 0.00 0.00 0.00 73 1011.0
20260506180053 70 215 11.0 26.0 0.00 0.00 0.00 74 1011.2
20260506174553 71 196 18.0 31.0 0.00 0.00 0.00 72 1011.0
20260506173130 72 187 15.0 29.0 0.00 0.00 0.00 71 1011.1
20260506171622 71 202 11.0 27.0 0.00 0.00 0.00 73 1011.3
20260506170103 70 167 8.0 21.0 0.00 0.00 0.00 72 1011.5
20260506164609 71 180 10.0 39.0 0.00 0.00 0.00 69 1012.0
20260506163105 74 217 16.0 30.0 0.00 0.00 0.00 63 1012.3
20260506161639 75 228 11.0 28.0 0.00 0.00 0.00 60 1012.4
20260506160108 76 227 12.0 27.0 0.00 0.00 0.00 59 1012.4
20260506154600 75 227 17.0 30.0 0.00 0.00 0.00 60 1012.5
20260506153100 74 199 14.0 30.0 0.00 0.00 0.00 61 1012.7
20260506151555 74 176 11.0 28.0 0.00 0.00 0.00 62 1012.5
20260506150056 74 223 12.0 28.0 0.00 0.00 0.00 61 1012.7
20260506144551 75 177 13.0 25.0 0.00 0.00 0.00 61 1012.5
20260506143055 75 189 18.0 31.0 0.00 0.00 0.00 60 1012.6
20260506141553 75 219 16.0 33.0 0.00 0.00 0.00 59 1012.7
20260506140054 74 360 15.0 28.0 0.00 0.00 0.00 62 1012.5
20260506134552 73 222 17.0 31.0 0.00 0.00 0.00 63 1012.8
20260506133052 72 185 17.0 30.0 0.00 0.00 0.00 64 1012.8
20260506131601 71 210 17.0 28.0 0.00 0.00 0.00 65 1012.9
20260506130112 70 360 14.0 25.0 0.00 0.00 0.00 68 1013.0
20260506124558 69 213 11.0 25.0 0.00 0.00 0.00 69 1013.2
20260506123050 69 205 10.0 22.0 0.00 0.00 0.00 70 1013.1
20260506121552 68 360 9.0 22.0 0.00 0.00 0.00 72 1013.1
20260506120056 67 197 10.0 20.0 0.00 0.00 0.00 74 1013.0
20260506114550 66 360 13.0 21.0 0.00 0.00 0.00 74 1013.1
20260506113054 66 212 10.0 20.0 0.00 0.00 0.00 75 1012.9
20260506111553 65 221 10.0 20.0 0.00 0.00 0.00 76 1012.8
20260506110056 64 360 9.0 21.0 0.00 0.00 0.00 78 1012.8
20260506104557 63 360 9.0 16.0 0.00 0.00 0.00 79 1013.0
20260506103059 63 171 10.0 17.0 0.00 0.00 0.00 79 1013.0
20260506101600 62 192 8.0 16.0 0.00 0.00 0.00 80 1013.1
20260506100119 62 186 8.0 17.0 0.00 0.00 0.00 80 1012.9
20260506094553 62 360 6.0 17.0 0.00 0.00 0.00 80 1012.9
20260506093053 62 360 6.0 17.0 0.00 0.00 0.00 80 1013.0
20260506091551 63 360 8.0 16.0 0.00 0.00 0.00 80 1012.9
20260506090054 63 188 8.0 15.0 0.00 0.00 0.00 80 1012.9
20260506084620 63 184 9.0 17.0 0.00 0.00 0.00 80 1013.2
20260506083055 63 360 9.0 15.0 0.00 0.00 0.00 80 1013.2
20260506081554 63 360 8.0 16.0 0.00 0.00 0.00 80 1013.3
20260506073054 64 214 8.0 16.0 0.00 0.00 0.00 78 1013.3
20260506071559 64 360 10.0 20.0 0.00 0.00 0.00 78 1013.3
20260506061553 66 216 10.0 22.0 0.00 0.00 0.00 76 1013.4
20260506060113 66 186 9.0 22.0 0.00 0.00 0.00 76 1013.4
20260506044704 66 198 10.0 22.0 0.00 0.00 0.00 75 1014.0
20260506043110 67 192 11.0 21.0 0.00 0.00 0.00 75 1013.9
20260506041603 67 360 9.0 21.0 0.00 0.00 0.00 74 1013.9
20260506040054 67 86 11.0 19.0 0.00 0.00 0.00 74 1013.8
20260506034627 68 360 9.0 21.0 0.00 0.00 0.00 73 1013.9
20260506033101 68 360 11.0 21.0 0.00 0.00 0.00 72 1013.9
20260506031603 68 360 11.0 23.0 0.00 0.00 0.00 72 1013.9
20260506030053 68 162 9.0 25.0 0.00 0.00 0.00 72 1014.0
20260506024554 68 194 13.0 21.0 0.00 0.00 0.00 72 1013.9
20260506023110 68 360 10.0 22.0 0.00 0.00 0.00 71 1014.0
20260506021553 69 200 13.0 25.0 0.00 0.00 0.00 70 1014.1
20260506020050 69 174 11.0 19.0 0.00 0.00 0.00 70 1014.0
20260506014554 69 157 12.0 26.0 0.00 0.00 0.00 69 1013.9
20260506013059 69 169 9.0 21.0 0.00 0.00 0.00 69 1013.7
20260506011614 69 188 14.0 24.0 0.00 0.00 0.00 69 1013.6
20260506004619 70 190 10.0 20.0 0.00 0.00 0.00 68 1013.3
20260506003108 70 174 13.0 24.0 0.00 0.00 0.00 67 1013.0
20260506001555 71 360 11.0 22.0 0.00 0.00 0.00 66 1012.9
20260506000057 71 360 12.0 25.0 0.00 0.00 0.00 64 1012.9
20260505234617 72 360 11.0 24.0 0.00 0.00 0.00 61 1012.8
20260505233053 73 189 13.0 27.0 0.00 0.00 0.00 58 1012.7
20260505231551 74 184 14.0 26.0 0.00 0.00 0.00 56 1012.8